Terminal Aerodrome Forecast
Issued by NWS

Home | Current Version | Previous Version | Text Only | Print | Product List | Glossary On
Versions: 1 2 3 4 5 6 7 8 9 10 11 12 13 14 15
000
FTUS45 KABQ 152300
TAFSAF
TAF
KSAF 152325Z 1600/1624 24012G20KT P6SM BKN250
     FM160200 21007KT P6SM BKN250
     FM161600 28007KT P6SM SCT150 BKN250
     FM162000 28015G22KT P6SM BKN150 BKN250=

USA.gov is the U.S. government's official web portal to all federal, state and local government web resources and services.